Location: Unspecified
(35.7250°N, 0.0000°E)
Time: 07:27:23
(UTC+00:00)

Vanguard 1 Rocket - Pass Details

Date: 19 June 2019
Orbit: 651 x 4225 km, 34.3° (Epoch: 16 July)

Event Time Altitude Azimuth Distance (km) Brightness Sun altitude
Rises 00:52:48 0° 267° (W) 3,190 - -29.6°
Reaches altitude 10° 00:57:51 10° 220° (SW) 2,045 - -29.4°
Maximum altitude 00:58:15 10° 215° (SW) 2,034 - -29.3°
Drops below altitude 10° 00:58:40 10° 209° (SSW) 2,039 - -29.3°
Sets 01:03:36 0° 162° (SSE) 3,104 - -29.0°
